Погода в Бобино

Россия / Кировская область     58°41′50″N   49°45′50″E
темп.,
°C
ветер,
м/с
пор.,
м/с
влажн.,
%
обл.,
%
осадки,
мм/ч
давл.,
гПа
погр.,
м
16 апреля, пт
пт1600:00+4св41274100 0.0 1027628
03:00+1св4127834 0.0 1028350
06:000св311835 0.0 1030408
09:00+5всв47590 0.0 1030781
12:00+7всв45490 0.0 10301069
15:00+8св45455 0.0 10301081
18:00+5св25645 0.0 1030116
21:00+1св24812 0.0 103156
17 апреля, сб
сб1700:00−1св11913 0.0 103124
03:00−1ссв11925 0.0 103220
06:00+2с24760 0.0 103299
09:00+7с23565 0.0 1031769
12:00+9ссз23505 0.0 10301276
15:00+11ссз34475 0.0 10281610
18:00+8сз246733 0.0 102778
21:00+4ссз27795 0.0 1028136
18 апреля, вс
вс1800:00+3ссз29840 0.0 1028196
03:00+2ссз29890 0.0 1028185
06:00+3ссв39875 0.0 1029475
09:00+4св466593 0.0 10311086
12:00+6св56435 0.0 10311432
15:00+6всв56385 0.0 10321620
18:00+4св48481 0.0 1033768
21:00+1всв410600 0.0 1034365
19 апреля, пн
пн1900:00−1всв411674 0.0 1036361
03:00−1всв39660 0.0 1037342
06:000всв49590 0.0 1038402
09:00+4в46425 0.0 10381335
12:00+6в35330 0.0 10371666
15:00+7в3431100 0.0 10371743
18:00+5вюв22460 0.0 103635
21:00+1вюв22580 0.0 103713
20 апреля, вт
вт2000:000юв22610 0.0 103827
03:00−1вюв22590 0.0 103828
06:00+1вюв25490 0.0 1038195
09:00+5юв35290 0.0 1036891
12:00+8юв45260 0.0 10351250
15:00+9юв35270 0.0 10331321
18:00+7вюв36447 0.0 1032179
21:00+3юв376115 0.0 1032138